User: anonymous   Login
Location: Albany
(35.0000°S, 118.0000°E)
Time: 14:04:26
(UTC-05:00)
Language:

Cosmos 1758 Rocket - Orbit

View from above orbital plane
View from above orbital plane
View from above satellite
View from above satellite

Ground track
Ground track

The orbit data is extracted from the following two-line orbital elements,

1 16792U 86046B   14324.64635127  .00000555  00000-0  65448-4 0  6316
2 16792 082.4828 006.2682 0025677 143.8749 332.0666 14.82706239535636
Epoch (UTC): 20 November 2014 15:30:44
Eccentricity: 0.0025677
inclination: 82.4828°
perigee height: 603 km
apogee height: 639 km
right ascension of ascending node: 6.2682°
argument of perigee: 143.8749°
revolutions per day: 14.82706239
mean anomaly at epoch: 332.0666°
orbit number at epoch: 53563

The dashed part of the orbit path shows where the satellite is in the earth's shadow,  

DLR